13-Aug-01,81.3
4-Sep-01,80.7
29-Oct-01,77.6
19-Nov-01,80.5
14-Jan-02,81.9
19-Feb-02,79.3
18-Mar-02,72.4
15-Apr-02,80.7
29-Apr-02,74.8
13-May-02,71.4
17-Jun-02,74.3
1-Jul-02,73.9
15-Jul-02,79
12-Aug-02,72.5
3-Sep-02,80.8
16-Sep-02,76.8
7-Oct-02,79.5
18-Nov-02,76.9
2-Dec-02,67.8
16-Dec-02,69.3
7-Jan-03,66.4
3-Feb-03,71.1
3-Mar-03,70.5
17-Mar-03,66.5
14-Apr-03,67
3-Jun-03,69.7
8-Sep-03,69.4
14-Oct-03,71.4
10-Nov-03,69.7
15-Dec-03,68.7
12-Jan-04,64.3
2-Feb-04,64
1-Mar-04,71.4
4-May-04,67.4
1-Jun-04,64.9
6-Jul-04,68.5
16-Aug-04,67.3
13-Sep-04,66.3
4-Oct-04,63.7
15-Nov-04,60.3
21-Dec-04,60.9
18-Jan-05,68
22-Feb-05,63.1
28-Mar-05,57.5
25-Apr-05,60.8
23-May-05,55.3
20-Jun-05,56
19-Jul-05,60.2
6-Sep-05,62.4
11-Oct-05,63.6
7-Nov-05,57.9
9-Jan-06,56.8
17-Jan-06,56.1
21-Feb-06,54.6
20-Mar-06,55.7
17-Apr-06,59.8
15-May-06,53.4
12-Jun-06,61.8
10-Jul-06,56.9
7-Aug-06,56.2
11-Sep-06,58.7
9-Oct-06,59.7
13-Nov-06,56.9
11-Dec-06,52.9
16-Jan-07,51.7
19-Mar-07,56.5
16-Apr-07,49.3
14-May-07,51.5
18-Jun-07,55.2
23-Jul-07,52.3
20-Aug-07,53.5
17-Sep-07,49.9
16-Oct-07,50.7
19-Nov-07,49.5
17-Dec-07,44.3
